Showing default

DSN-3, 61733

Orbit data source: Space-Track

DSN-3, 61733 is a payload satellite owned by DSN Corp. (JP) in GEO that was launched on Mon, 04 Nov 2024 UTC via a H3-22S launch vehicle from the Tanegashima Space Center (TNSTA). Payload-class satellites include a variety of spacecraft equipped with specific instruments for various scientific and technological missions. These include communications satellites like Starlink; space stations such as the ISS; scientific satellites like the Hubble; Earth observation satellites from companies like Planet Labs, Umbra, and HawkEye 360; GPS; miniature CubeSats for education and research; and military/defense satellites.

Not visible in the next 10 days
Identifier
61733, 2024-198A
Orbit
GEO
Country
Flag of JPJP / JPN
Related business
Manufacturer
MELCO/NECST
Mission
Operational Defense Communications
Bus & Motor
DS-2000, R-4D
Mass
5,000 kg wet, 2,500 kg dry
Launch date (UTC)
2024-11-04 (11 months ago)
Launch vehicle
H3-22S
Launch site
Tanegashima Space Center (TNSTA)
Object type
Payload
Rocket body
Debris
Shape & HBR
Box + 2 Pan, 15.0 m
Radar Cross Section
67.841 m², Large (>1 m²)

Expand to show TLE details & history
Last TLE update: 8 hours ago

TLE from 8 hours ago
0 DSN-3
1 61733U 24198A   25290.94007069 -.00000258  00000-0  00000-0 0  9993
2 61733   0.0024 189.1231 0001087   6.7127 313.3579  1.00271690  3495
Epoch: 2025-10-17T22:33Z
TLE epoch observation values (Epoch: 2025-10-17T22:33:42.107Z)
Latitude
-0.01943°
Longitude
144.06176°
Altitude
35,782.956 km
Speed
3.075 km/s
True Right ascension
09h 56m 39s
True Declination
0° 01' 10"
Sunlit
Object was in daylight at epoch
Visualization orbit readout
Latitude
Unknown
Longitude
Unknown
Altitude
Unknown
Speed
Unknown
Apparent Right ascension
Unknown
Apparent Declination
Unknown
Sunlit
N/A
Visualization observer readout
Local Sidereal Time
00:54:28
Azimuth
Unknown
Elevation
Unknown
Doppler factor
Unknown
Orbital elements
Apogee altitude
35,792.275 km
Perigee altitude
35,783.109 km
Semi-major axis
42,165.829 km
Eccentricity
0.00011
Inclination
0.0024°
RAAN
189.1231°
Arg. of periapsis
6.7127°
True anomaly
313.34884°
Mean anomaly
313.3579°
Eccentric anomaly
313.35337°
Mean motion
0.25067 °/min
Orbital period
1,436.15 mins
BSTAR
0
Loading maneuver chart data...
Computing Atmospheric mass density...
Loading historical data...
Loading historical data...
Loading historical data...
Loading historical data...
Loading historical data...
Loading historical data...
Loading historical data...
Other satellites on launch #198 in the year 2024 (2024-11-04 UTC)

Documentation

Showing up to 5 results
|